EN

Hourly Weather La Democracia

Today, 23 July, Friday

Time Temperature Precipitation Wind Pressure Humidity
00:00 +25°C° 0 mm 2 mps 741 mmHg 81%
01:00 +25°C° 0 mm 2 mps 740 mmHg 78%
02:00 +25°C° 0 mm 2 mps 740 mmHg 76%
03:00 +25°C° 0 mm 2 mps 740 mmHg 73%
04:00 +24°C° 0 mm 2 mps 740 mmHg 72%
05:00 +24°C° 0 mm 2 mps 740 mmHg 71%
06:00 +24°C° 0 mm 2 mps 740 mmHg 71%
07:00 +26°C° 0 mm 2 mps 740 mmHg 65%
08:00 +29°C° 0 mm 1 mps 741 mmHg 59%
09:00 +31°C° 0 mm 1 mps 741 mmHg 53%
10:00 +32°C° 0 mm 1 mps 740 mmHg 51%
11:00 +33°C° 0 mm 1 mps 740 mmHg 49%
12:00 +35°C° 0 mm 2 mps 740 mmHg 47%
13:00 +35°C° 0 mm 2 mps 739 mmHg 50%
14:00 +35°C° 0 mm 2 mps 739 mmHg 52%
15:00 +35°C° 0 mm 3 mps 739 mmHg 55%
16:00 +32°C° 0.5 mm 2 mps 739 mmHg 65%
17:00 +30°C° 0.5 mm 2 mps 739 mmHg 76%
18:00 +29°C° 0.5 mm 1 mps 739 mmHg 86%
19:00 +28°C° 0.3 mm 2 mps 740 mmHg 87%
20:00 +27°C° 0.3 mm 2 mps 740 mmHg 88%
21:00 +26°C° 0.3 mm 2 mps 740 mmHg 89%
22:00 +25°C° 0 mm 2 mps 740 mmHg 87%
23:00 +25°C° 0 mm 2 mps 740 mmHg 85%

Tomorrow, 24 July, Saturday

Time Temperature Precipitation Wind Pressure Humidity
00:00 +25°C° 0 mm 2 mps 740 mmHg 83%
01:00 +25°C° 0 mm 2 mps 740 mmHg 80%
02:00 +24°C° 0 mm 2 mps 739 mmHg 78%
03:00 +24°C° 0 mm 2 mps 739 mmHg 76%
04:00 +24°C° 0 mm 2 mps 739 mmHg 75%
05:00 +24°C° 0 mm 2 mps 740 mmHg 74%
06:00 +24°C° 0 mm 2 mps 740 mmHg 73%
07:00 +26°C° 0 mm 1 mps 740 mmHg 69%
08:00 +28°C° 0 mm 1 mps 741 mmHg 64%
09:00 +28°C° 0 mm 0 mps 741 mmHg 59%
10:00 +31°C° 0 mm 1 mps 741 mmHg 59%
11:00 +32°C° 0 mm 2 mps 740 mmHg 58%
12:00 +34°C° 0 mm 2 mps 740 mmHg 57%
13:00 +32°C° 0.1 mm 2 mps 740 mmHg 59%
14:00 +32°C° 0.1 mm 2 mps 739 mmHg 61%
15:00 +33°C° 0.1 mm 3 mps 739 mmHg 63%
16:00 +31°C° 0.5 mm 2 mps 739 mmHg 72%
17:00 +29°C° 0.5 mm 2 mps 739 mmHg 80%
18:00 +28°C° 0.5 mm 1 mps 739 mmHg 89%
19:00 +27°C° 0.2 mm 1 mps 740 mmHg 90%
20:00 +26°C° 0.2 mm 1 mps 740 mmHg 91%
21:00 +26°C° 0.2 mm 1 mps 740 mmHg 91%
22:00 +25°C° 0.1 mm 1 mps 740 mmHg 91%
23:00 +25°C° 0.1 mm 2 mps 740 mmHg 91%

Day after tomorrow, 25 July, Sunday

Time Temperature Precipitation Wind Pressure Humidity
00:00 +25°C° 0.1 mm 2 mps 740 mmHg 90%
01:00 +24°C° 0 mm 2 mps 739 mmHg 89%
02:00 +24°C° 0 mm 2 mps 739 mmHg 89%
03:00 +24°C° 0 mm 2 mps 739 mmHg 88%
04:00 +24°C° 0 mm 2 mps 739 mmHg 86%
05:00 +24°C° 0 mm 2 mps 739 mmHg 85%
06:00 +23°C° 0 mm 2 mps 739 mmHg 83%
07:00 +26°C° 0 mm 1 mps 739 mmHg 78%
08:00 +28°C° 0 mm 1 mps 740 mmHg 73%
09:00 +30°C° 0 mm 1 mps 740 mmHg 67%
10:00 +31°C° 0 mm 1 mps 739 mmHg 64%
11:00 +32°C° 0 mm 2 mps 739 mmHg 61%
12:00 +34°C° 0 mm 2 mps 739 mmHg 58%
13:00 +34°C° 0.1 mm 2 mps 738 mmHg 61%
14:00 +32°C° 0.1 mm 2 mps 738 mmHg 64%
15:00 +32°C° 0.1 mm 2 mps 737 mmHg 67%
16:00 +31°C° 0.6 mm 2 mps 737 mmHg 74%
17:00 +29°C° 0.6 mm 1 mps 738 mmHg 82%
18:00 +28°C° 0.6 mm 1 mps 738 mmHg 89%
19:00 +27°C° 0.3 mm 1 mps 738 mmHg 90%
20:00 +26°C° 0.3 mm 1 mps 739 mmHg 91%
21:00 +25°C° 0.3 mm 1 mps 739 mmHg 92%
22:00 +25°C° 0 mm 2 mps 739 mmHg 91%
23:00 +24°C° 0 mm 2 mps 739 mmHg 91%

26 July, Monday

Time Temperature Precipitation Wind Pressure Humidity
00:00 +24°C° 0 mm 2 mps 739 mmHg 91%
01:00 +24°C° 0 mm 2 mps 739 mmHg 89%
02:00 +23°C° 0 mm 2 mps 738 mmHg 88%
03:00 +23°C° 0 mm 2 mps 738 mmHg 86%
04:00 +23°C° 0 mm 2 mps 738 mmHg 84%
05:00 +23°C° 0 mm 2 mps 738 mmHg 82%
06:00 +23°C° 0 mm 2 mps 738 mmHg 79%
07:00 +26°C° 0 mm 1 mps 739 mmHg 75%
08:00 +28°C° 0 mm 1 mps 739 mmHg 70%
09:00 +28°C° 0 mm 0 mps 739 mmHg 65%
10:00 +31°C° 0 mm 1 mps 739 mmHg 62%
11:00 +32°C° 0 mm 2 mps 739 mmHg 60%
12:00 +34°C° 0 mm 2 mps 739 mmHg 57%
13:00 +32°C° 0.2 mm 2 mps 738 mmHg 62%
14:00 +32°C° 0.2 mm 2 mps 738 mmHg 67%
15:00 +31°C° 0.2 mm 2 mps 738 mmHg 72%
16:00 +30°C° 0.6 mm 2 mps 738 mmHg 78%
17:00 +29°C° 0.6 mm 1 mps 738 mmHg 83%
18:00 +26°C° 0.6 mm 0 mps 738 mmHg 88%
19:00 +27°C° 0.6 mm 1 mps 739 mmHg 89%
20:00 +26°C° 0.6 mm 1 mps 739 mmHg 91%
21:00 +25°C° 0.6 mm 1 mps 740 mmHg 92%
22:00 +25°C° 0 mm 1 mps 740 mmHg 92%
23:00 +25°C° 0 mm 1 mps 740 mmHg 92%

27 July, Tuesday

Time Temperature Precipitation Wind Pressure Humidity
00:00 +24°C° 0 mm 1 mps 740 mmHg 92%
01:00 +24°C° 0 mm 1 mps 739 mmHg 92%
02:00 +24°C° 0 mm 1 mps 739 mmHg 92%
03:00 +24°C° 0 mm 1 mps 739 mmHg 91%
04:00 +24°C° 0 mm 1 mps 739 mmHg 90%
05:00 +24°C° 0 mm 1 mps 739 mmHg 88%
06:00 +24°C° 0 mm 1 mps 739 mmHg 87%
07:00 +25°C° 0 mm 1 mps 739 mmHg 82%
08:00 +27°C° 0 mm 1 mps 740 mmHg 78%
09:00 +27°C° 0 mm 0 mps 740 mmHg 73%
10:00 +30°C° 0 mm 1 mps 740 mmHg 71%
11:00 +30°C° 0 mm 2 mps 739 mmHg 68%
12:00 +31°C° 0 mm 2 mps 739 mmHg 66%
13:00 +30°C° 0.6 mm 2 mps 739 mmHg 72%
14:00 +29°C° 0.6 mm 2 mps 739 mmHg 79%
15:00 +29°C° 0.6 mm 2 mps 738 mmHg 85%
16:00 +28°C° 0.9 mm 1 mps 739 mmHg 88%
17:00 +27°C° 0.9 mm 1 mps 739 mmHg 90%
18:00 +26°C° 0.9 mm 1 mps 739 mmHg 93%
19:00 +26°C° 0.5 mm 1 mps 739 mmHg 93%
20:00 +25°C° 0.5 mm 1 mps 740 mmHg 93%
21:00 +25°C° 0.5 mm 1 mps 740 mmHg 94%
22:00 +25°C° 0.6 mm 1 mps 740 mmHg 94%
23:00 +25°C° 0.6 mm 1 mps 740 mmHg 94%

28 July, Wednesday

Time Temperature Precipitation Wind Pressure Humidity
00:00 +24°C° 0.6 mm 1 mps 740 mmHg 94%
01:00 +24°C° 0.1 mm 1 mps 739 mmHg 93%
02:00 +24°C° 0.1 mm 1 mps 739 mmHg 92%
03:00 +24°C° 0.1 mm 1 mps 738 mmHg 91%
04:00 +24°C° 0 mm 1 mps 739 mmHg 90%
05:00 +24°C° 0 mm 1 mps 739 mmHg 90%
06:00 +24°C° 0 mm 1 mps 739 mmHg 89%
07:00 +26°C° 0 mm 1 mps 739 mmHg 83%
08:00 +28°C° 0 mm 1 mps 739 mmHg 77%
09:00 +29°C° 0 mm 1 mps 740 mmHg 71%
10:00 +30°C° 0.2 mm 1 mps 739 mmHg 70%
11:00 +31°C° 0.2 mm 2 mps 739 mmHg 70%
12:00 +31°C° 0.2 mm 2 mps 739 mmHg 69%
13:00 +30°C° 2.2 mm 2 mps 738 mmHg 74%
14:00 +30°C° 2.2 mm 1 mps 738 mmHg 80%
15:00 +29°C° 2.2 mm 1 mps 737 mmHg 85%
16:00 +28°C° 2.2 mm 1 mps 738 mmHg 89%
17:00 +27°C° 2.2 mm 1 mps 738 mmHg 92%
18:00 +26°C° 2.2 mm 1 mps 738 mmHg 95%
19:00 +26°C° 1 mm 1 mps 738 mmHg 95%
20:00 +25°C° 1 mm 1 mps 738 mmHg 96%
21:00 +25°C° 1 mm 1 mps 739 mmHg 97%
22:00 +25°C° 0.7 mm 1 mps 738 mmHg 97%
23:00 +25°C° 0.7 mm 1 mps 738 mmHg 97%
Show more